Location: ??????
(30.5519°N, 47.7720°E)
Time: 17:30:20
(UTC+00:00)

BREEZE-M DEB (TANK) - Pass Details

Date: 24 January 2021
Orbit: 325 x 13917 km, 49.6° (Epoch: 01 March)

Event Time Altitude Azimuth Distance (km) Brightness Sun altitude
Rises 14:41:51 0° 319° (NW) 2,768 6.7 -5.6°
Reaches altitude 10° 14:44:34 10° 332° (NNW) 1,424 5.1 -6.2°
Maximum altitude 14:46:52 27° 36° (NE) 669 2.8 -6.6°
Drops below altitude 10° 14:48:57 10° 100° (E) 1,283 4.2 -7.1°
Enters shadow 14:49:54 - 109° (ESE) 1,744 4.9 -7.2°
